GIOVE-A 1 28922U 05051A 10244.85449262 .00000009 00000-0 10000-3 0 7244 2 28922 056.1081 145.7758 0009468 356.9356 003.2058 01.69475575 29050 GIOVE-B 1 32781U 08020A 10245.18996184 +.00000022 +00000-0 +10000-3 0 03508 2 32781 055.9235 180.4094 0020578 224.4149 135.4127 01.70949231014684